EW7772 Weather Reports


Display with metric or nautical units.
time (UTC)temp
F
wind
direction
speed
MPH
gust
MPH
rain 1hr
in
rain 24hr
in
rain mn
in
humidity
%
barometer
mb
20260905160036 74 284 1.0 4.0 0.00 0.49 0.49 46 1021.9
20260905154544 75 244 0.0 6.0 0.00 0.49 0.49 47 1021.8
20260905153035 76 259 0.0 4.0 0.00 0.49 0.49 45 1021.7
20260905151535 78 273 0.0 6.0 0.00 0.49 0.49 43 1021.6
20260905150041 77 258 1.0 6.0 0.00 0.49 0.49 44 1021.5
20260905144537 78 144 1.0 7.0 0.00 0.49 0.49 45 1021.4
20260905143033 78 284 1.0 6.0 0.00 0.49 0.49 45 1021.5
20260905141534 78 286 0.0 5.0 0.00 0.49 0.49 47 1021.5
20260905140029 78 263 0.0 6.0 0.00 0.49 0.49 49 1021.5
20260905134527 77 234 1.0 4.0 0.00 0.49 0.49 49 1021.6
20260905133024 76 273 0.0 5.0 0.00 0.49 0.49 53 1021.5
20260905131533 75 14 0.0 5.0 0.00 0.49 0.49 54 1021.6
20260905130021 75 284 0.0 4.0 0.00 0.49 0.49 54 1021.7
20260905124521 75 241 0.0 3.0 0.00 0.49 0.49 58 1021.8
20260905123029 75 290 0.0 2.0 0.00 0.49 0.49 58 1021.6
20260905121517 74 259 0.0 4.0 0.00 0.49 0.49 58 1021.7
20260905120022 74 211 1.0 5.0 0.00 0.49 0.49 57 1021.9
20260905114517 73 320 0.0 4.0 0.00 0.49 0.49 62 1021.8
20260905113011 71 287 0.0 4.0 0.00 0.49 0.49 63 1021.9
20260905111513 72 303 0.0 5.0 0.00 0.49 0.49 64 1021.8
20260905110008 72 267 1.0 5.0 0.00 0.49 0.49 65 1021.8
20260905104515 71 263 1.0 6.0 0.00 0.49 0.49 68 1021.9
20260905103003 69 287 1.0 6.0 0.00 0.49 0.49 69 1022.0
20260905101501 69 254 0.0 3.0 0.00 0.49 0.49 72 1021.9
20260905100104 68 286 0.0 3.0 0.00 0.49 0.49 74 1021.9
20260905094716 68 319 0.0 3.0 0.00 0.49 0.49 78 1021.9
20260905093116 66 287 0.0 4.0 0.00 0.49 0.49 81 1021.8
20260905091602 66 277 0.0 4.0 0.00 0.49 0.49 80 1021.8
20260905090055 66 271 0.0 2.0 0.00 0.49 0.49 81 1021.6
20260905084604 65 284 0.0 3.0 0.00 0.49 0.49 81 1021.3
20260905083053 64 249 0.0 3.0 0.00 0.49 0.49 85 1021.3
20260905081553 63 234 0.0 1.0 0.00 0.49 0.49 90 1021.1
20260905080105 62 234 0.0 1.0 0.00 0.49 0.49 92 1021.0
20260905074601 61 221 0.0 1.0 0.00 0.49 0.49 94 1021.2
20260905073105 60 221 0.0 0.0 0.00 0.49 0.49 94 1020.9
20260905071552 60 221 0.0 0.0 0.00 0.49 0.49 94 1020.8
20260905070048 59 221 0.0 0.0 0.00 0.49 0.49 95 1020.7
20260905064548 59 221 0.0 0.0 0.00 0.49 0.49 95 1020.9
20260905063047 58 221 0.0 0.0 0.00 0.49 0.49 94 1020.7
20260905061559 58 221 0.0 0.0 0.00 0.49 0.49 95 1020.3
20260905060059 58 221 0.0 1.0 0.00 0.49 0.49 95 1020.0
20260905054554 58 221 0.0 1.0 0.00 0.49 0.49 95 1019.8
20260905053042 58 221 0.0 0.0 0.00 0.49 0.49 95 1019.7
20260905051552 57 221 0.0 0.0 0.01 0.49 0.49 94 1019.6
20260905050040 57 221 0.0 2.0 0.03 0.49 0.49 94 1019.3
20260905044543 57 221 0.0 1.0 0.08 0.49 0.49 93 1019.3
20260905043040 56 221 0.0 2.0 0.13 0.49 0.49 92 1019.2
20260905041540 57 227 0.0 1.0 0.16 0.48 0.48 92 1019.3
20260905040035 57 227 0.0 0.0 0.20 0.46 0.46 90 1019.6
20260905034535 58 227 0.0 0.0 0.27 0.41 0.41 90 1019.5
20260905033030 58 227 0.0 0.0 0.31 0.35 0.35 89 1019.6
20260905031537 59 227 0.0 2.0 0.32 0.32 0.32 88 1019.5
20260905030025 61 157 0.0 2.0 0.24 0.24 0.24 89 1019.7
20260905024539 63 217 0.0 5.0 0.14 0.14 0.14 86 1019.1
20260905023021 66 246 0.0 3.0 0.03 0.03 0.03 82 1018.9
20260905021514 68 309 0.0 3.0 0.00 0.00 0.00 75 1017.7
20260905020011 68 275 0.0 2.0 0.00 0.00 0.00 74 1017.4
20260905014511 69 276 0.0 0.0 0.00 0.00 0.00 71 1017.3
20260905013009 69 276 0.0 3.0 0.00 0.00 0.00 72 1017.3
20260905011509 69 311 0.0 1.0 0.00 0.00 0.00 73 1017.2
20260905010005 69 312 0.0 1.0 0.00 0.00 0.00 74 1016.9
20260905004507 68 311 0.0 1.0 0.00 0.00 0.00 75 1016.8
20260905003100 68 323 0.0 0.0 0.00 0.00 0.00 75 1016.4
20260905001559 67 323 0.0 0.0 0.00 0.00 0.00 75 1016.1
20260905000058 67 323 0.0 0.0 0.00 0.00 0.00 76 1016.0
20260904234557 68 323 0.0 0.0 0.00 0.00 0.00 76 1016.1
20260904233056 68 323 0.0 0.0 0.00 0.00 0.00 76 1016.0
20260904231555 68 323 0.0 0.0 0.00 0.00 0.00 76 1015.8
20260904230106 68 323 0.0 0.0 0.00 0.00 0.00 75 1015.7
20260904224556 68 323 0.0 0.0 0.00 0.00 0.00 76 1015.4
20260904223106 67 323 0.0 0.0 0.00 0.00 0.00 76 1015.3
20260904221558 67 323 0.0 0.0 0.00 0.00 0.00 75 1015.2
20260904220047 68 323 0.0 0.0 0.00 0.00 0.00 73 1015.0
20260904214550 69 323 0.0 0.0 0.00 0.00 0.00 72 1014.9
20260904213045 70 323 0.0 0.0 0.00 0.00 0.00 70 1014.6
20260904211544 71 323 0.0 0.0 0.00 0.00 0.00 69 1014.5
20260904210043 71 323 0.0 0.0 0.00 0.00 0.00 68 1014.5
20260904204543 72 323 0.0 0.0 0.00 0.00 0.00 66 1014.4
20260904203042 72 323 0.0 0.0 0.00 0.00 0.00 65 1014.3
20260904201544 73 323 0.0 0.0 0.00 0.00 0.00 63 1014.3
20260904200058 74 323 0.0 0.0 0.00 0.00 0.00 61 1014.1
20260904194544 75 323 0.0 0.0 0.00 0.00 0.00 60 1014.1
20260904193054 76 323 0.0 0.0 0.00 0.00 0.00 57 1014.1
20260904191544 77 323 0.0 0.0 0.00 0.00 0.00 57 1013.9
20260904190037 77 323 0.0 0.0 0.00 0.00 0.00 55 1013.9
20260904184538 78 323 0.0 1.0 0.00 0.00 0.00 54 1013.7
20260904183036 79 323 0.0 0.0 0.00 0.00 0.00 52 1013.6
20260904181536 81 323 0.0 0.0 0.00 0.00 0.00 49 1013.4
20260904180037 82 323 0.0 2.0 0.00 0.00 0.00 48 1013.2
20260904174535 83 331 0.0 2.0 0.00 0.00 0.00 46 1013.0
20260904173034 83 283 0.0 1.0 0.00 0.00 0.00 45 1013.0
20260904171604 84 298 0.0 3.0 0.00 0.00 0.00 44 1013.0
20260904170033 85 253 0.0 3.0 0.00 0.00 0.00 42 1013.0
20260904164534 85 251 0.0 6.0 0.00 0.00 0.00 40 1012.9
20260904163047 86 305 0.0 6.0 0.00 0.00 0.00 39 1012.9
20260904161533 87 273 0.0 5.0 0.00 0.00 0.00 38 1013.0